| time (UTC) | temp C | wind direction | speed KPH | gust KPH | rain 1hr cm | rain 24hr cm | rain mn cm | humidity % | barometer mb |
| 20260505003848 | 18 | 149 | 3.2 | 11.3 | 0.00 | 0.00 | 0.00 | 48 | 1007.5 |
| 20260505003319 | 18 | 230 | 4.8 | 11.3 | 0.00 | 0.00 | 0.00 | 46 | 1007.4 |
| 20260505002818 | 18 | 190 | 3.2 | 12.9 | 0.00 | 0.00 | 0.00 | 46 | 1007.2 |
| 20260505002252 | 17 | 159 | 3.2 | 14.5 | 0.00 | 0.00 | 0.00 | 46 | 1007.0 |
| 20260505001727 | 17 | 180 | 3.2 | 14.5 | 0.00 | 0.00 | 0.00 | 47 | 1006.9 |
| 20260505001159 | 17 | 128 | 1.6 | 4.8 | 0.00 | 0.00 | 0.00 | 47 | 1006.6 |
| 20260505001009 | 18 | 127 | 1.6 | 3.2 | 0.00 | 0.00 | 0.00 | 42 | 1006.3 |
| 20260505000901 | 18 | 127 | 1.6 | 3.2 | 0.00 | 0.00 | 0.00 | 45 | 1006.4 |
| 20260504235602 | 18 | 111 | 1.6 | 3.2 | 0.00 | 0.00 | 0.00 | 42 | 1006.3 |
| 20260504235041 | 18 | 111 | 1.6 | 4.8 | 0.00 | 0.00 | 0.00 | 40 | 1006.1 |
| 20260504234529 | 19 | 109 | 1.6 | 6.4 | 0.00 | 0.00 | 0.00 | 40 | 1006.1 |
| 20260504234230 | 19 | 96 | 1.6 | 6.4 | 0.00 | 0.00 | 0.00 | 40 | 1006.1 |
| 20260504233457 | 19 | 101 | 1.6 | 4.8 | 0.00 | 0.00 | 0.00 | 38 | 1005.9 |
| 20260504232954 | 20 | 101 | 1.6 | 4.8 | 0.00 | 0.00 | 0.00 | 38 | 1005.8 |
| 20260504232453 | 20 | 107 | 1.6 | 6.4 | 0.00 | 0.00 | 0.00 | 37 | 1005.9 |
| 20260504231924 | 20 | 167 | 3.2 | 6.4 | 0.00 | 0.00 | 0.00 | 37 | 1005.8 |
| 20260504231422 | 20 | 40 | 1.6 | 6.4 | 0.00 | 0.00 | 0.00 | 37 | 1005.7 |
| 20260504230854 | 20 | 342 | 1.6 | 6.4 | 0.00 | 0.00 | 0.00 | 37 | 1005.7 |
| 20260504230353 | 20 | 113 | 1.6 | 6.4 | 0.00 | 0.00 | 0.00 | 37 | 1005.6 |
| 20260504225823 | 20 | 192 | 1.6 | 12.9 | 0.00 | 0.00 | 0.00 | 36 | 1005.6 |
| 20260504225322 | 20 | 140 | 3.2 | 4.8 | 0.00 | 0.00 | 0.00 | 37 | 1005.5 |
| 20260504224803 | 20 | 341 | 3.2 | 11.3 | 0.00 | 0.00 | 0.00 | 36 | 1005.5 |
| 20260504224305 | 21 | 61 | 1.6 | 6.4 | 0.00 | 0.00 | 0.00 | 36 | 1005.5 |
| 20260504223735 | 21 | 105 | 1.6 | 4.8 | 0.00 | 0.00 | 0.00 | 36 | 1005.3 |
| 20260504223233 | 21 | 52 | 3.2 | 6.4 | 0.00 | 0.00 | 0.00 | 37 | 1005.3 |
| 20260504222728 | 21 | 123 | 3.2 | 6.4 | 0.00 | 0.00 | 0.00 | 36 | 1005.2 |
| 20260504222227 | 21 | 306 | 3.2 | 12.9 | 0.00 | 0.00 | 0.00 | 35 | 1005.1 |
| 20260504221700 | 21 | 284 | 3.2 | 12.9 | 0.00 | 0.00 | 0.00 | 36 | 1005.2 |
| 20260504221133 | 21 | 53 | 3.2 | 14.5 | 0.00 | 0.00 | 0.00 | 35 | 1005.2 |
| 20260504220609 | 21 | 204 | 3.2 | 14.5 | 0.00 | 0.00 | 0.00 | 35 | 1005.2 |
| 20260504220311 | 21 | 244 | 3.2 | 11.3 | 0.00 | 0.00 | 0.00 | 36 | 1005.1 |
| 20260504215808 | 21 | 134 | 3.2 | 11.3 | 0.00 | 0.00 | 0.00 | 35 | 1005.1 |
| 20260504215034 | 21 | 141 | 4.8 | 11.3 | 0.00 | 0.00 | 0.00 | 35 | 1005.2 |
| 20260504214533 | 21 | 222 | 3.2 | 12.9 | 0.00 | 0.00 | 0.00 | 34 | 1005.2 |
| 20260504214236 | 21 | 115 | 3.2 | 6.4 | 0.00 | 0.00 | 0.00 | 35 | 1005.1 |
| 20260504213502 | 21 | 126 | 3.2 | 12.9 | 0.00 | 0.00 | 0.00 | 34 | 1005.1 |
| 20260504212933 | 21 | 49 | 3.2 | 12.9 | 0.00 | 0.00 | 0.00 | 34 | 1005.1 |
| 20260504212432 | 21 | 19 | 4.8 | 14.5 | 0.00 | 0.00 | 0.00 | 34 | 1005.2 |
| 20260504211904 | 21 | 100 | 4.8 | 14.5 | 0.00 | 0.00 | 0.00 | 33 | 1005.1 |
| 20260504211401 | 21 | 229 | 4.8 | 19.3 | 0.00 | 0.00 | 0.00 | 32 | 1005.0 |
| 20260504210836 | 21 | 251 | 4.8 | 19.3 | 0.00 | 0.00 | 0.00 | 33 | 1005.1 |
| 20260504210542 | 22 | 282 | 4.8 | 14.5 | 0.00 | 0.00 | 0.00 | 32 | 1005.2 |
| 20260504205809 | 22 | 288 | 4.8 | 14.5 | 0.00 | 0.00 | 0.00 | 33 | 1005.2 |
| 20260504205311 | 22 | 161 | 3.2 | 14.5 | 0.00 | 0.00 | 0.00 | 34 | 1005.1 |
| 20260504204748 | 22 | 242 | 3.2 | 14.5 | 0.00 | 0.00 | 0.00 | 32 | 1005.1 |
| 20260504204248 | 22 | 182 | 4.8 | 14.5 | 0.00 | 0.00 | 0.00 | 31 | 1005.2 |
| 20260504203959 | 22 | 292 | 4.8 | 17.7 | 0.00 | 0.00 | 0.00 | 32 | 1005.4 |
| 20260504203833 | 22 | 140 | 4.8 | 17.7 | 0.00 | 0.00 | 0.00 | 31 | 1005.3 |
| 20260504202726 | 22 | 103 | 4.8 | 16.1 | 0.00 | 0.00 | 0.00 | 31 | 1005.2 |
| 20260504202200 | 22 | 223 | 3.2 | 12.9 | 0.00 | 0.00 | 0.00 | 31 | 1005.2 |
| 20260504202156 | 22 | 309 | 3.2 | 16.1 | 0.00 | 0.00 | 0.00 | 32 | 1005.2 |
| 20260504201159 | 22 | 113 | 4.8 | 14.5 | 0.00 | 0.00 | 0.00 | 31 | 1005.2 |
| 20260504200648 | 21 | 134 | 4.8 | 14.5 | 0.00 | 0.00 | 0.00 | 32 | 1005.1 |
| 20260504200147 | 21 | 222 | 4.8 | 12.9 | 0.00 | 0.00 | 0.00 | 33 | 1005.3 |
| 20260504195917 | 21 | 298 | 3.2 | 12.9 | 0.00 | 0.00 | 0.00 | 32 | 1005.3 |
| 20260504195421 | 21 | 112 | 3.2 | 12.9 | 0.00 | 0.00 | 0.00 | 33 | 1005.3 |
| 20260504194640 | 21 | 57 | 4.8 | 12.9 | 0.00 | 0.00 | 0.00 | 32 | 1005.3 |
| 20260504194138 | 21 | 276 | 4.8 | 12.9 | 0.00 | 0.00 | 0.00 | 31 | 1005.4 |
| 20260504193637 | 21 | 10 | 4.8 | 12.9 | 0.00 | 0.00 | 0.00 | 32 | 1005.4 |
| 20260504193138 | 21 | 59 | 4.8 | 12.9 | 0.00 | 0.00 | 0.00 | 30 | 1005.4 |
| 20260504192958 | 22 | 335 | 4.8 | 12.9 | 0.00 | 0.00 | 0.00 | 31 | 1005.3 |
| 20260504192851 | 22 | 296 | 4.8 | 12.9 | 0.00 | 0.00 | 0.00 | 30 | 1005.4 |
| 20260504191558 | 22 | 317 | 4.8 | 12.9 | 0.00 | 0.00 | 0.00 | 30 | 1005.4 |
| 20260504191035 | 22 | 241 | 3.2 | 12.9 | 0.00 | 0.00 | 0.00 | 32 | 1005.4 |
| 20260504190513 | 22 | 245 | 4.8 | 17.7 | 0.00 | 0.00 | 0.00 | 31 | 1005.5 |
| 20260504185946 | 22 | 283 | 4.8 | 17.7 | 0.00 | 0.00 | 0.00 | 30 | 1005.6 |
| 20260504185425 | 22 | 63 | 4.8 | 12.9 | 0.00 | 0.00 | 0.00 | 30 | 1005.5 |
| 20260504184900 | 22 | 205 | 4.8 | 16.1 | 0.00 | 0.00 | 0.00 | 30 | 1005.7 |
| 20260504184358 | 22 | 156 | 6.4 | 16.1 | 0.00 | 0.00 | 0.00 | 30 | 1005.6 |
| 20260504183858 | 22 | 325 | 6.4 | 16.1 | 0.00 | 0.00 | 0.00 | 31 | 1005.9 |
| 20260504183335 | 22 | 248 | 6.4 | 16.1 | 0.00 | 0.00 | 0.00 | 32 | 1005.8 |
| 20260504182806 | 22 | 252 | 4.8 | 11.3 | 0.00 | 0.00 | 0.00 | 29 | 1005.9 |
| 20260504182512 | 22 | 173 | 4.8 | 16.1 | 0.00 | 0.00 | 0.00 | 29 | 1006.1 |
| 20260504181715 | 22 | 278 | 4.8 | 16.1 | 0.00 | 0.00 | 0.00 | 32 | 1006.1 |
| 20260504181147 | 21 | 155 | 6.4 | 19.3 | 0.00 | 0.00 | 0.00 | 31 | 1005.9 |
| 20260504180621 | 21 | 252 | 6.4 | 19.3 | 0.00 | 0.00 | 0.00 | 33 | 1005.9 |
| 20260504180119 | 22 | 293 | 4.8 | 17.7 | 0.00 | 0.00 | 0.00 | 30 | 1005.9 |
| 20260504175609 | 21 | 136 | 4.8 | 17.7 | 0.00 | 0.00 | 0.00 | 31 | 1006.0 |
| 20260504175605 | 21 | 321 | 4.8 | 17.7 | 0.00 | 0.00 | 0.00 | 31 | 1005.9 |
| 20260504174555 | 21 | 148 | 4.8 | 16.1 | 0.00 | 0.00 | 0.00 | 31 | 1006.0 |
| 20260504174053 | 21 | 240 | 4.8 | 14.5 | 0.00 | 0.00 | 0.00 | 33 | 1005.9 |
| 20260504173757 | 21 | 210 | 6.4 | 17.7 | 0.00 | 0.00 | 0.00 | 32 | 1006.0 |
| 20260504172959 | 21 | 300 | 4.8 | 17.7 | 0.00 | 0.00 | 0.00 | 32 | 1006.1 |
| 20260504172431 | 21 | 122 | 4.8 | 17.7 | 0.00 | 0.00 | 0.00 | 31 | 1006.2 |
| 20260504172200 | 21 | 217 | 4.8 | 16.1 | 0.00 | 0.00 | 0.00 | 32 | 1006.2 |
| 20260504171405 | 21 | 244 | 6.4 | 16.1 | 0.00 | 0.00 | 0.00 | 32 | 1006.2 |
| 20260504170835 | 20 | 153 | 6.4 | 19.3 | 0.00 | 0.00 | 0.00 | 35 | 1006.3 |
| 20260504170335 | 20 | 39 | 6.4 | 19.3 | 0.00 | 0.00 | 0.00 | 33 | 1006.2 |
| 20260504160125 | 19 | 214 | 4.8 | 16.1 | 0.00 | 0.00 | 0.00 | 35 | 1006.6 |
| 20260504150937 | 18 | 128 | 4.8 | 14.5 | 0.00 | 0.00 | 0.00 | 39 | 1007.6 |
| 20260504150410 | 18 | 169 | 4.8 | 14.5 | 0.00 | 0.00 | 0.00 | 39 | 1007.6 |
| 20260504141142 | 16 | 201 | 3.2 | 11.3 | 0.00 | 0.00 | 0.00 | 44 | 1008.1 |
| 20260504140615 | 16 | 76 | 3.2 | 9.7 | 0.00 | 0.00 | 0.00 | 45 | 1008.3 |
| 20260504130352 | 13 | 345 | 3.2 | 11.3 | 0.00 | 0.00 | 0.00 | 50 | 1008.8 |
| 20260504120225 | 11 | 315 | 3.2 | 9.7 | 0.00 | 0.00 | 0.00 | 58 | 1009.2 |
| 20260504110409 | 6 | 225 | 1.6 | 3.2 | 0.00 | 0.00 | 0.00 | 75 | 1009.2 |
| 20260504110135 | 6 | 225 | 0.0 | 3.2 | 0.00 | 0.00 | 0.00 | 74 | 1009.2 |
| 20260504100428 | 6 | 167 | 1.6 | 6.4 | 0.00 | 0.00 | 0.00 | 75 | 1009.3 |
| 20260504081709 | 6 | 155 | 0.0 | 1.6 | 0.00 | 0.00 | 0.00 | 74 | 1009.3 |
| 20260504081142 | 6 | 155 | 0.0 | 1.6 | 0.00 | 0.00 | 0.00 | 73 | 1009.3 |
| 20260504080614 | 6 | 155 | 0.0 | 3.2 | 0.00 | 0.00 | 0.00 | 72 | 1009.1 |
| 20260504080112 | 6 | 155 | 0.0 | 3.2 | 0.00 | 0.00 | 0.00 | 73 | 1009.2 |
| 20260504070336 | 6 | 107 | 1.6 | 4.8 | 0.00 | 0.00 | 0.00 | 69 | 1009.1 |
| 20260504060124 | 6 | 78 | 0.0 | 1.6 | 0.00 | 0.00 | 0.00 | 71 | 1009.2 |
| 20260504050529 | 3 | 67 | 1.6 | 3.2 | 0.00 | 0.00 | 0.00 | 76 | 1009.1 |
| 20260504045735 | 3 | 67 | 1.6 | 3.2 | 0.00 | 0.00 | 0.00 | 76 | 1009.2 |
| 20260504044944 | 3 | 67 | 0.0 | 3.2 | 0.00 | 0.00 | 0.00 | 74 | 1009.2 |
| 20260504044441 | 3 | 67 | 0.0 | 3.2 | 0.00 | 0.00 | 0.00 | 74 | 1009.1 |
| 20260504044211 | 3 | 67 | 0.0 | 3.2 | 0.00 | 0.00 | 0.00 | 73 | 1009.2 |
| 20260504043420 | 3 | 67 | 0.0 | 3.2 | 0.00 | 0.00 | 0.00 | 75 | 1009.1 |
| 20260504042919 | 3 | 67 | 1.6 | 3.2 | 0.00 | 0.00 | 0.00 | 73 | 1009.1 |
| 20260504042420 | 3 | 67 | 0.0 | 3.2 | 0.00 | 0.00 | 0.00 | 73 | 1009.1 |
| 20260504042147 | 3 | 67 | 0.0 | 1.6 | 0.00 | 0.00 | 0.00 | 75 | 1009.0 |
| 20260504041351 | 3 | 67 | 0.0 | 1.6 | 0.00 | 0.00 | 0.00 | 75 | 1009.1 |
| 20260504040852 | 3 | 67 | 1.6 | 3.2 | 0.00 | 0.00 | 0.00 | 76 | 1009.0 |
| 20260504040555 | 3 | 67 | 1.6 | 3.2 | 0.00 | 0.00 | 0.00 | 76 | 1009.0 |
| 20260504040040 | 3 | 67 | 1.6 | 3.2 | 0.00 | 0.00 | 0.00 | 76 | 1009.0 |
| 20260504035532 | 3 | 67 | 1.6 | 3.2 | 0.00 | 0.00 | 0.00 | 77 | 1008.9 |
| 20260504034758 | 3 | 67 | 1.6 | 3.2 | 0.00 | 0.00 | 0.00 | 77 | 1008.8 |
| 20260504034254 | 3 | 67 | 1.6 | 3.2 | 0.00 | 0.00 | 0.00 | 77 | 1008.8 |
| 20260504033753 | 3 | 67 | 1.6 | 3.2 | 0.00 | 0.00 | 0.00 | 78 | 1008.8 |
| 20260504033249 | 3 | 67 | 0.0 | 1.6 | 0.00 | 0.00 | 0.00 | 79 | 1008.7 |
| 20260504032747 | 3 | 67 | 0.0 | 1.6 | 0.00 | 0.00 | 0.00 | 79 | 1008.7 |
| 20260504032515 | 3 | 67 | 1.6 | 3.2 | 0.00 | 0.00 | 0.00 | 79 | 1008.7 |
| 20260504031742 | 3 | 67 | 1.6 | 3.2 | 0.00 | 0.00 | 0.00 | 79 | 1008.7 |
| 20260504031216 | 3 | 67 | 1.6 | 3.2 | 0.00 | 0.00 | 0.00 | 79 | 1008.7 |
| 20260504030714 | 3 | 67 | 0.0 | 3.2 | 0.00 | 0.00 | 0.00 | 78 | 1008.8 |
| 20260504030149 | 3 | 67 | 1.6 | 3.2 | 0.00 | 0.00 | 0.00 | 78 | 1008.8 |
| 20260504025628 | 3 | 67 | 1.6 | 3.2 | 0.00 | 0.00 | 0.00 | 79 | 1008.7 |
| 20260504025131 | 3 | 67 | 0.0 | 1.6 | 0.00 | 0.00 | 0.00 | 77 | 1008.7 |
| 20260504024838 | 3 | 67 | 0.0 | 1.6 | 0.00 | 0.00 | 0.00 | 78 | 1008.6 |
| 20260504024107 | 3 | 67 | 0.0 | 1.6 | 0.00 | 0.00 | 0.00 | 79 | 1008.5 |
| 20260504023542 | 3 | 67 | 0.0 | 1.6 | 0.00 | 0.00 | 0.00 | 79 | 1008.5 |
| 20260504023043 | 3 | 67 | 0.0 | 1.6 | 0.00 | 0.00 | 0.00 | 79 | 1008.6 |
| 20260504022518 | 3 | 67 | 1.6 | 3.2 | 0.00 | 0.00 | 0.00 | 79 | 1008.6 |
| 20260504022017 | 4 | 67 | 1.6 | 3.2 | 0.00 | 0.00 | 0.00 | 77 | 1008.5 |
| 20260504021457 | 4 | 67 | 0.0 | 1.6 | 0.00 | 0.00 | 0.00 | 76 | 1008.5 |
| 20260504020938 | 4 | 67 | 0.0 | 1.6 | 0.00 | 0.00 | 0.00 | 76 | 1008.4 |
| 20260504020413 | 4 | 67 | 1.6 | 3.2 | 0.00 | 0.00 | 0.00 | 78 | 1008.4 |
| 20260504020110 | 4 | 67 | 1.6 | 3.2 | 0.00 | 0.00 | 0.00 | 77 | 1008.3 |
| 20260504015944 | 4 | 67 | 1.6 | 3.2 | 0.00 | 0.00 | 0.00 | 77 | 1008.3 |
| 20260504014819 | 4 | 67 | 1.6 | 3.2 | 0.00 | 0.00 | 0.00 | 77 | 1008.3 |
| 20260504014300 | 4 | 67 | 0.0 | 1.6 | 0.00 | 0.00 | 0.00 | 77 | 1008.3 |
| 20260504013736 | 5 | 67 | 0.0 | 1.6 | 0.00 | 0.00 | 0.00 | 77 | 1008.3 |
| 20260504013220 | 5 | 67 | 0.0 | 1.6 | 0.00 | 0.00 | 0.00 | 77 | 1008.2 |
| 20260504012720 | 5 | 67 | 1.6 | 1.6 | 0.00 | 0.00 | 0.00 | 76 | 1008.2 |
| 20260504012221 | 5 | 67 | 1.6 | 3.2 | 0.00 | 0.00 | 0.00 | 74 | 1008.3 |
| 20260504011929 | 5 | 67 | 1.6 | 3.2 | 0.00 | 0.00 | 0.00 | 74 | 1008.2 |
| 20260504011140 | 5 | 67 | 1.6 | 3.2 | 0.00 | 0.00 | 0.00 | 74 | 1008.1 |
| 20260504010641 | 5 | 67 | 0.0 | 1.6 | 0.00 | 0.00 | 0.00 | 74 | 1008.1 |
| 20260504010118 | 5 | 67 | 0.0 | 1.6 | 0.00 | 0.00 | 0.00 | 73 | 1008.0 |
| 20260504005551 | 6 | 67 | 1.6 | 3.2 | 0.00 | 0.00 | 0.00 | 72 | 1008.0 |
| 20260504005026 | 6 | 67 | 0.0 | 3.2 | 0.00 | 0.00 | 0.00 | 70 | 1007.9 |
| 20260504004758 | 6 | 67 | 0.0 | 0.0 | 0.00 | 0.00 | 0.00 | 64 | 1007.9 |
| 20260504004024 | 6 | 67 | 0.0 | 0.0 | 0.00 | 0.00 | 0.00 | 62 | 1007.8 |